sat.trackr.live / text

‹ back to catalog

STARLINK-30144

NORAD 56835 · 2023-079N

PAYLOAD ACTIVE UNKNOWN

§ Identity

Operator
Country
US
Launch date
2023-06-04
Launch site
AFETR
Launch vehicle
Mass (kg)
RCS (m²)

Purposes: comms

External: N2YO · Heavens-Above · Gunter

§ Orbital elements

Epoch: 2026-09-20T22:00:03.000096Z

Period
92.56 min
Inclination
42.9865°
Eccentricity
0.0025335
Mean motion
15.55774557 rev/d
Perigee alt
382.7 km
Apogee alt
417.1 km
Semi-major
6,778.0 km
B*
2.4999e-3
RAAN
60.7628°
Arg perigee
302.9848°
Mean anomaly
226.5775°
Rev number
582

§ Raw data

STARLINK-301441 56835U 23079N   26263.91670139  .00183339  00000+0  24999-2 0  99942 56835  42.9865  60.7628 0025335 302.9848 226.5775 15.55774557  5824

JSON: /api/v1/satellites/56835 · /tle

For live sub-satellite position, see the globe view (requires WebGL).

§ Visibility from observer

Set your observer location to see the next 7 days of passes ≥ 10°. The values pass through the URL so the page stays shareable.

No JS? Fill the form by hand. The geolocation button needs JavaScript.